| time (UTC) | temp C | wind direction | speed KPH | gust KPH | rain 1hr cm | rain 24hr cm | rain mn cm | humidity % | barometer mb |
| 20260507072725 | 7 | 114 | 8.0 | 14.5 | 0.00 | 0.00 | 0.00 | 57 | 1015.9 |
| 20260507070725 | 7 | 110 | 9.7 | 16.1 | 0.00 | 0.00 | 0.00 | 54 | 1015.9 |
| 20260507064725 | 7 | 108 | 12.9 | 17.7 | 0.00 | 0.00 | 0.00 | 54 | 1015.9 |
| 20260507062725 | 7 | 99 | 12.9 | 17.7 | 0.00 | 0.00 | 0.00 | 51 | 1015.8 |
| 20260507060725 | 7 | 79 | 9.7 | 17.7 | 0.00 | 0.00 | 0.00 | 50 | 1015.7 |
| 20260507054725 | 6 | 70 | 8.0 | 16.1 | 0.00 | 0.00 | 0.00 | 53 | 1015.6 |
| 20260507052725 | 6 | 52 | 9.7 | 14.5 | 0.00 | 0.00 | 0.00 | 54 | 1015.5 |
| 20260507050724 | 6 | 47 | 12.9 | 16.1 | 0.00 | 0.00 | 0.00 | 56 | 1015.5 |
| 20260507044724 | 5 | 40 | 14.5 | 17.7 | 0.00 | 0.00 | 0.00 | 60 | 1015.4 |
| 20260507040725 | 5 | 46 | 14.5 | 17.7 | 0.00 | 0.00 | 0.00 | 60 | 1015.4 |
| 20260507034725 | 5 | 45 | 14.5 | 19.3 | 0.00 | 0.00 | 0.00 | 58 | 1015.3 |
| 20260507032725 | 5 | 44 | 17.7 | 20.9 | 0.00 | 0.00 | 0.00 | 58 | 1015.2 |
| 20260507030725 | 5 | 43 | 17.7 | 20.9 | 0.00 | 0.00 | 0.00 | 58 | 1015.1 |
| 20260507024724 | 5 | 42 | 17.7 | 22.5 | 0.00 | 0.00 | 0.00 | 59 | 1014.9 |
| 20260507022724 | 5 | 42 | 17.7 | 22.5 | 0.00 | 0.00 | 0.00 | 60 | 1015.0 |
| 20260507020724 | 5 | 48 | 16.1 | 19.3 | 0.00 | 0.00 | 0.00 | 58 | 1015.0 |
| 20260507014724 | 5 | 52 | 14.5 | 20.9 | 0.00 | 0.00 | 0.00 | 57 | 1015.0 |
| 20260507012724 | 5 | 50 | 17.7 | 20.9 | 0.00 | 0.00 | 0.00 | 54 | 1014.9 |
| 20260507010724 | 5 | 48 | 17.7 | 22.5 | 0.00 | 0.00 | 0.00 | 55 | 1014.9 |
| 20260507004723 | 5 | 47 | 16.1 | 22.5 | 0.00 | 0.00 | 0.00 | 54 | 1014.7 |
| 20260507002724 | 5 | 44 | 19.3 | 22.5 | 0.00 | 0.00 | 0.00 | 53 | 1014.8 |
| 20260507000724 | 5 | 42 | 17.7 | 20.9 | 0.00 | 0.00 | 0.00 | 58 | 1014.7 |
| 20260506234724 | 5 | 41 | 16.1 | 20.9 | 0.00 | 0.00 | 0.00 | 58 | 1014.7 |
| 20260506232724 | 5 | 42 | 16.1 | 19.3 | 0.00 | 0.00 | 0.00 | 57 | 1014.7 |
| 20260506230725 | 5 | 34 | 16.1 | 20.9 | 0.00 | 0.00 | 0.00 | 62 | 1014.7 |
| 20260506224723 | 5 | 35 | 16.1 | 19.3 | 0.00 | 0.00 | 0.00 | 58 | 1014.7 |
| 20260506220724 | 6 | 27 | 16.1 | 17.7 | 0.00 | 0.00 | 0.00 | 63 | 1014.5 |
| 20260506214724 | 6 | 25 | 14.5 | 17.7 | 0.00 | 0.00 | 0.00 | 65 | 1014.4 |
| 20260506212724 | 5 | 5 | 14.5 | 16.1 | 0.00 | 0.00 | 0.00 | 66 | 1014.3 |
| 20260506210723 | 5 | 334 | 9.7 | 14.5 | 0.00 | 0.00 | 0.00 | 80 | 1014.2 |
| 20260506202723 | 5 | 331 | 9.7 | 14.5 | 0.00 | 0.00 | 0.00 | 85 | 1014.2 |
| 20260506200723 | 5 | 281 | 9.7 | 11.3 | 0.00 | 0.00 | 0.00 | 100 | 1014.2 |
| 20260506194723 | 5 | 264 | 12.9 | 14.5 | 0.00 | 0.00 | 0.00 | 100 | 1014.2 |
| 20260506192723 | 5 | 251 | 11.3 | 14.5 | 0.00 | 0.00 | 0.00 | 100 | 1014.2 |
| 20260506190723 | 5 | 263 | 12.9 | 16.1 | 0.00 | 0.00 | 0.00 | 98 | 1014.2 |
| 20260506184722 | 6 | 257 | 14.5 | 17.7 | 0.00 | 0.00 | 0.00 | 95 | 1014.1 |
| 20260506182724 | 6 | 256 | 16.1 | 19.3 | 0.00 | 0.00 | 0.00 | 95 | 1014.0 |
| 20260506180723 | 6 | 248 | 17.7 | 20.9 | 0.00 | 0.00 | 0.00 | 92 | 1014.1 |
| 20260506174723 | 6 | 244 | 17.7 | 22.5 | 0.00 | 0.00 | 0.00 | 83 | 1014.1 |
| 20260506172722 | 7 | 245 | 19.3 | 20.9 | 0.00 | 0.00 | 0.00 | 77 | 1014.1 |
| 20260506170722 | 7 | 245 | 19.3 | 22.5 | 0.00 | 0.00 | 0.00 | 75 | 1014.1 |
| 20260506164721 | 8 | 243 | 17.7 | 20.9 | 0.00 | 0.00 | 0.00 | 69 | 1014.0 |
| 20260506162722 | 8 | 246 | 20.9 | 24.1 | 0.00 | 0.00 | 0.00 | 65 | 1014.0 |
| 20260506160722 | 8 | 248 | 19.3 | 22.5 | 0.00 | 0.00 | 0.00 | 65 | 1014.0 |
| 20260506152722 | 8 | 253 | 24.1 | 27.4 | 0.00 | 0.00 | 0.00 | 68 | 1014.0 |
| 20260506150721 | 8 | 255 | 27.4 | 30.6 | 0.00 | 0.00 | 0.00 | 70 | 1014.1 |
| 20260506144721 | 7 | 256 | 30.6 | 37.0 | 0.00 | 0.00 | 0.00 | 74 | 1014.2 |
| 20260506142721 | 7 | 257 | 32.2 | 37.0 | 0.00 | 0.00 | 0.00 | 72 | 1014.2 |
| 20260506140721 | 8 | 255 | 29.0 | 35.4 | 0.00 | 0.00 | 0.00 | 66 | 1014.4 |
| 20260506132721 | 8 | 254 | 30.6 | 38.6 | 0.00 | 0.00 | 0.00 | 66 | 1014.3 |
| 20260506130721 | 8 | 251 | 33.8 | 43.5 | 0.00 | 0.00 | 0.00 | 61 | 1014.3 |
| 20260506124721 | 8 | 254 | 38.6 | 45.1 | 0.00 | 0.00 | 0.00 | 58 | 1014.2 |
| 20260506122721 | 8 | 249 | 32.2 | 45.1 | 0.00 | 0.00 | 0.00 | 59 | 1014.4 |
| 20260506120721 | 8 | 245 | 33.8 | 41.8 | 0.00 | 0.00 | 0.00 | 65 | 1014.5 |
| 20260506114722 | 8 | 246 | 33.8 | 45.1 | 0.00 | 0.00 | 0.00 | 62 | 1014.4 |
| 20260506112721 | 7 | 241 | 32.2 | 38.6 | 0.00 | 0.00 | 0.00 | 72 | 1014.4 |
| 20260506110721 | 7 | 243 | 32.2 | 37.0 | 0.00 | 0.00 | 0.00 | 87 | 1014.5 |
| 20260506104722 | 7 | 245 | 33.8 | 38.6 | 0.00 | 0.00 | 0.00 | 81 | 1014.4 |
| 20260506102722 | 7 | 243 | 32.2 | 38.6 | 0.00 | 0.00 | 0.00 | 80 | 1014.3 |
| 20260506100722 | 7 | 243 | 30.6 | 37.0 | 0.00 | 0.00 | 0.00 | 81 | 1014.1 |
| 20260506094722 | 7 | 243 | 27.4 | 32.2 | 0.00 | 0.00 | 0.00 | 85 | 1014.1 |
| 20260506092722 | 8 | 244 | 27.4 | 32.2 | 0.00 | 0.00 | 0.00 | 76 | 1013.7 |
| 20260506090722 | 8 | 245 | 24.1 | 29.0 | 0.00 | 0.00 | 0.00 | 69 | 1013.6 |
| 20260506084722 | 9 | 257 | 24.1 | 30.6 | 0.00 | 0.00 | 0.00 | 70 | 1013.6 |
| 20260506082722 | 9 | 252 | 24.1 | 29.0 | 0.00 | 0.00 | 0.00 | 76 | 1013.5 |
| 20260506080722 | 8 | 244 | 27.4 | 30.6 | 0.00 | 0.00 | 0.00 | 81 | 1013.4 |